Location: Saint-Denis
(20.8800°S, 55.4481°E)
Time: 00:50:18
(UTC+04:00)

VELOX 1 - Visible Passes

Search period start: 20 September 2024 00:00
Search period end: 30 September 2024 00:00
Orbit: 599 x 611 km, 98.3° (Epoch: 19 September)

Date Brightness Start Highest point End Pass type
(mag) Time Alt. Az. Time Alt. Az. Time Alt. Az.
22 Sep ? 20:02:56 11° S 20:02:56 11° S 20:03:07 10° S visible
23 Sep ? 20:15:33 12° S 20:15:33 12° S 20:15:50 10° S visible
24 Sep ? 20:28:10 12° SSW 20:28:10 12° SSW 20:28:25 10° SSW visible
25 Sep ? 20:40:46 11° SSW 20:40:46 11° SSW 20:40:53 10° SSW visible
28 Sep ? 19:41:38 11° SSE 19:41:38 11° SSE 19:41:49 10° SSE visible
29 Sep ? 19:54:10 13° SSE 19:54:10 13° SSE 19:54:45 10° SSE visible
